period_start,C,m1,H,J0,J1,J2,J3,J4,J5,JA,JB,JC,JD,JJ,JK,JN,#
2014-09-21 00:04:52,0.08,0.30,0.00,22.57,26.85,29.53,9.41,40.16,997.09,2040.86,3293.01,3259.73,3514.45,499.81,487.72,12.52,0000 0000 0000 0000 000000
2014-09-21 00:15:37,0.06,0.31,0.00,22.57,26.85,29.56,9.52,40.23,997.09,2040.83,3290.42,3258.02,3512.46,499.87,487.77,12.61,0000 0000 0000 0000 000000
2014-09-21 00:20:38,0.06,0.31,0.00,22.59,26.85,29.54,9.49,40.24,997.08,2040.78,3289.09,3257.17,3511.52,500.29,488.00,12.66,0000 0000 0000 0000 000000
2014-09-21 00:25:39,0.10,0.31,0.00,22.59,26.85,29.53,9.49,40.15,997.08,2040.83,3287.58,3256.39,3510.44,500.56,488.31,12.70,0000 0000 0000 0000 000000
2014-09-21 00:30:40,0.07,0.32,0.00,22.58,26.85,29.53,9.44,40.32,997.08,2040.86,3285.93,3255.56,3509.28,500.28,488.14,12.74,0000 0000 0000 0000 000000
2014-09-21 00:35:41,0.07,0.32,0.00,22.60,26.84,29.52,9.46,40.27,997.08,2040.93,3284.45,3254.72,3508.26,500.04,487.90,12.78,0000 0000 0000 0000 000000
2014-09-21 00:40:42,0.05,0.32,0.00,22.57,26.84,29.51,9.45,40.23,997.07,2040.94,3283.03,3254.00,3507.20,499.75,487.62,12.82,0000 0000 0000 0000 000000
2014-09-21 00:45:43,0.08,0.33,0.00,22.60,26.84,29.52,9.41,40.28,997.05,2040.96,3281.65,3253.14,3506.08,500.03,487.93,12.86,0000 0000 0000 0000 000000
2014-09-21 00:50:44,0.07,0.33,0.00,22.60,26.84,29.51,9.46,40.33,997.04,2040.96,3280.08,3252.27,3504.90,499.93,487.82,12.91,0000 0000 0000 0000 000000
2014-09-21 00:55:45,0.07,0.33,0.00,22.62,26.83,29.51,9.45,40.39,996.88,2040.94,3278.64,3251.45,3503.89,499.94,487.60,12.95,0000 0000 0000 0000 000000
2014-09-21 01:00:47,0.07,0.34,0.00,22.64,26.83,29.51,9.49,40.19,996.72,2040.95,3277.22,3250.67,3502.81,500.31,487.80,12.99,0000 0000 0000 0000 000000
2014-09-21 01:05:48,0.07,0.34,0.00,22.67,26.83,29.53,9.39,40.48,996.65,2040.98,3275.67,3249.84,3501.69,499.76,487.30,13.03,0000 0000 0000 0000 000000
2014-09-21 01:10:49,0.06,0.34,0.00,22.67,26.82,29.52,9.41,40.39,996.61,2040.98,3274.23,3249.01,3500.67,500.08,487.48,13.07,0000 0000 0000 0000 000000
2014-09-21 01:15:50,0.08,0.34,0.00,22.68,26.82,29.53,9.50,40.36,996.60,2040.98,3272.68,3248.11,3499.52,500.09,487.46,13.11,0000 0000 0000 0000 000000
2014-09-21 01:20:51,0.07,0.35,0.00,22.67,26.82,29.51,9.42,40.27,996.60,2040.98,3271.31,3247.32,3498.48,500.10,487.53,13.16,0000 0000 0000 0000 000000
2014-09-21 01:25:52,0.08,0.35,0.00,22.67,26.82,29.49,9.40,40.30,996.59,2040.99,3269.70,3246.46,3497.37,500.38,487.75,13.20,0000 0000 0000 0000 000000
2014-09-21 01:30:53,0.06,0.35,0.00,22.69,26.82,29.49,9.45,40.27,996.55,2040.98,3268.22,3245.63,3496.24,500.19,487.64,13.24,0000 0000 0000 0000 000000
2014-09-21 01:35:55,0.08,0.36,0.00,22.70,26.82,29.49,9.44,40.23,996.32,2040.99,3266.55,3244.73,3495.07,500.20,487.59,13.28,0000 0000 0000 0000 000000
2014-09-21 01:40:56,0.07,0.36,0.00,22.72,26.82,29.50,9.46,40.45,996.29,2040.99,3264.95,3243.85,3493.93,499.92,487.29,13.32,0000 0000 0000 0000 000000
2014-09-21 01:45:57,0.08,0.36,0.00,22.73,26.82,29.50,9.46,40.18,996.23,2040.99,3263.47,3242.90,3492.75,500.46,487.59,13.37,0000 0000 0000 0000 000000
2014-09-21 01:50:58,0.08,0.37,0.00,22.73,26.81,29.46,9.49,40.34,996.16,2040.99,3261.86,3241.95,3491.61,500.23,487.34,13.41,0000 0000 0000 0000 000000
2014-09-21 01:56:01,0.08,0.37,0.00,22.74,26.80,29.39,9.45,40.35,996.15,2040.99,3260.17,3240.93,3490.39,500.06,487.29,13.45,0000 0000 0000 0000 000000
2014-09-21 02:01:02,0.09,0.37,0.00,22.75,26.80,29.40,9.45,40.27,996.12,2040.99,3258.47,3239.89,3489.06,499.92,487.14,13.49,0000 0000 0000 0000 000000
2014-09-21 02:06:03,0.09,0.38,0.00,22.76,26.80,29.38,9.38,40.08,996.11,2040.99,3256.65,3238.84,3487.79,499.84,487.06,13.53,0000 0000 0000 0000 000000
2014-09-21 02:11:05,0.08,0.38,0.00,22.74,26.80,29.38,9.47,40.02,996.11,2040.99,3254.83,3237.87,3486.51,500.44,487.63,13.58,0000 0000 0000 0000 000000
2014-09-21 02:16:07,0.09,0.39,0.00,22.74,26.80,29.38,9.44,40.19,996.11,2040.99,3253.03,3236.78,3485.26,500.12,487.33,13.62,0000 0000 0000 0000 000000
2014-09-21 02:21:08,0.09,0.39,0.00,22.75,26.80,29.38,9.40,40.13,996.11,2040.99,3251.01,3235.70,3483.82,499.89,487.38,13.66,0000 0000 0000 0000 000000
2014-09-21 02:26:09,0.09,0.39,0.00,22.77,26.79,29.37,9.42,40.17,996.11,2040.99,3249.22,3234.63,3482.54,499.90,486.94,13.70,0000 0000 0000 0000 000000
2014-09-21 02:31:10,0.09,0.40,0.00,22.76,26.77,29.35,9.37,40.09,996.10,2040.99,3247.42,3233.55,3481.21,500.05,487.11,13.74,0000 0000 0000 0000 000000
2014-09-21 02:36:11,0.08,0.40,0.00,22.77,26.77,29.33,9.41,40.31,996.10,2040.99,3245.70,3232.54,3480.09,500.02,487.16,13.78,0000 0000 0000 0000 000000
2014-09-21 02:41:12,0.07,0.41,0.00,22.78,26.77,29.34,9.42,40.33,996.08,2040.99,3244.20,3231.63,3478.95,499.69,486.90,13.83,0000 0000 0000 0000 000000
2014-09-21 02:46:13,0.09,0.41,0.00,22.81,26.77,29.33,9.32,40.20,996.01,2040.99,3242.44,3230.56,3477.70,499.71,486.42,13.87,0000 0000 0000 0000 000000
2014-09-21 02:51:15,0.08,0.41,0.00,22.79,26.77,29.33,9.38,40.15,995.98,2040.99,3240.78,3229.53,3476.44,499.82,486.79,13.91,0000 0000 0000 0000 000000
2014-09-21 02:56:16,0.07,0.42,0.00,22.79,26.77,29.34,9.43,40.34,995.98,2040.99,3239.21,3228.63,3475.36,500.15,487.06,13.95,0000 0000 0000 0000 000000
2014-09-21 03:01:17,0.07,0.42,0.00,22.79,26.77,29.36,9.34,40.31,996.00,2041.00,3237.60,3227.77,3474.20,499.72,486.83,13.99,0000 0000 0000 0000 000000
2014-09-21 03:06:18,0.07,0.42,0.00,22.77,26.76,29.36,9.43,40.28,996.01,2041.01,3235.98,3226.91,3473.08,500.19,487.08,14.04,0000 0000 0000 0000 000000
2014-09-21 03:11:19,0.09,0.43,0.00,22.81,26.75,29.33,9.31,40.25,995.89,2041.01,3234.33,3225.89,3471.81,500.09,487.00,14.08,0000 0000 0000 0000 000000
2014-09-21 03:16:21,0.08,0.43,0.00,22.90,26.75,29.35,9.39,40.20,995.68,2041.00,3232.61,3224.88,3470.62,499.93,486.53,14.12,0000 0000 0000 0000 000000
2014-09-21 03:21:22,0.07,0.43,0.00,22.92,26.75,29.38,9.41,40.22,995.66,2041.00,3231.11,3223.98,3469.53,499.72,486.32,14.16,0000 0000 0000 0000 000000
2014-09-21 03:26:23,0.07,0.44,0.00,22.88,26.72,29.49,9.40,40.27,995.71,2041.00,3229.43,3223.13,3468.40,499.99,486.68,14.20,0000 0000 0000 0000 000000
2014-09-21 03:31:24,0.08,0.44,0.00,22.91,26.72,29.55,9.39,40.23,995.68,2041.01,3227.85,3222.27,3467.43,500.29,486.81,14.25,0000 0000 0000 0000 000000
2014-09-21 03:36:26,0.07,0.44,0.00,22.90,26.70,29.58,9.43,40.17,995.66,2041.00,3226.38,3221.35,3466.26,500.25,486.76,14.29,0000 0000 0000 0000 000000
2014-09-21 03:41:26,0.07,0.45,0.00,22.89,26.70,29.55,9.43,40.03,995.63,2041.02,3224.83,3220.58,3465.23,500.09,486.91,14.33,0000 0000 0000 0000 000000
2014-09-21 03:46:27,0.06,0.45,0.00,22.90,26.67,29.53,9.44,40.25,995.63,2041.00,3223.36,3219.76,3464.13,500.44,487.00,14.37,0000 0000 0000 0000 000000
2014-09-21 03:51:28,0.05,0.45,0.00,22.91,26.67,29.53,9.38,40.25,995.64,2041.02,3222.04,3219.01,3463.21,499.81,486.28,14.41,0000 0000 0000 0000 000000
2014-09-21 03:56:29,0.08,0.45,0.00,22.92,26.65,29.53,9.34,40.37,995.62,2041.08,3220.75,3218.21,3462.46,500.09,486.66,14.45,0000 0000 0000 0000 000000
2014-09-21 04:01:31,0.07,0.46,0.00,22.91,26.64,29.49,9.41,40.42,995.64,2041.15,3219.60,3217.59,3461.60,500.59,487.18,14.50,0000 0000 0000 0000 000000
2014-09-21 04:06:32,0.11,0.46,0.00,22.87,26.62,29.45,9.39,40.20,995.67,2041.68,3218.33,3217.02,3460.83,499.83,486.50,14.54,0000 0000 0000 0000 000000
2014-09-21 04:11:33,0.06,0.46,0.00,22.88,26.60,29.40,9.40,40.38,995.65,2041.92,3217.54,3216.56,3460.09,500.42,487.09,14.58,0000 0000 0000 0000 000000
2014-09-21 04:16:35,0.02,0.47,0.00,22.77,26.58,29.39,9.42,40.42,995.76,2041.97,3216.96,3216.02,3459.96,499.79,486.77,14.62,0000 0000 0000 0000 000000
2014-09-21 04:21:36,0.03,0.47,0.00,22.67,26.57,29.36,9.45,40.64,995.97,2041.99,3216.34,3215.99,3459.57,500.21,487.28,14.66,0000 0000 0000 0000 000000
2014-09-21 04:26:37,0.01,0.47,0.00,22.69,26.57,29.36,9.31,40.32,996.10,2041.97,3216.00,3215.95,3459.05,499.45,486.72,14.71,0000 0000 0000 0000 000000
2014-09-21 04:31:38,0.00,0.47,0.00,22.73,26.55,29.33,9.44,40.38,996.12,2041.99,3215.99,3215.84,3459.04,500.00,486.95,14.75,0000 0000 0000 0000 000000
2014-09-21 04:36:39,0.01,0.47,0.00,22.69,26.55,29.32,9.38,40.58,996.11,2041.98,3216.00,3215.55,3459.13,500.23,487.42,14.79,0000 0000 0000 0000 000000
2014-09-21 04:41:41,0.01,0.47,0.00,22.66,26.53,29.32,9.43,40.44,996.13,2041.98,3216.07,3215.15,3459.19,499.47,486.71,14.83,0000 0000 0000 0000 000000
2014-09-21 04:46:41,0.00,0.47,0.00,22.66,26.52,29.29,9.39,40.51,996.29,2041.98,3216.13,3215.03,3459.29,499.68,487.00,14.87,0000 0000 0000 0000 000000
2014-09-21 04:51:42,0.00,0.47,0.00,22.65,26.52,29.29,9.39,40.60,996.50,2041.97,3216.05,3215.00,3459.18,500.26,487.47,14.91,0000 0000 0000 0000 000000
2014-09-21 04:56:43,0.00,0.47,0.00,22.65,26.52,29.29,9.33,40.38,996.57,2041.98,3216.02,3215.00,3459.11,499.85,487.41,14.96,0000 0000 0000 0000 000000
2014-09-21 05:01:44,0.01,0.47,0.00,22.69,26.52,29.29,9.42,40.33,996.60,2041.97,3215.95,3214.93,3459.00,500.26,487.54,15.00,0000 0000 0000 0000 000000
2014-09-21 05:06:46,0.03,0.47,0.00,22.71,26.51,29.26,9.40,40.26,996.60,2041.97,3215.45,3214.62,3458.99,500.09,487.38,15.04,0000 0000 0000 0000 000000
2014-09-21 05:11:47,0.01,0.47,0.00,22.68,26.50,29.26,9.42,40.44,996.60,2041.96,3215.03,3214.11,3458.93,499.91,487.37,15.08,0000 0000 0000 0000 000000
2014-09-21 05:16:48,0.01,0.47,0.00,22.62,26.50,29.22,9.39,40.46,996.65,2041.97,3214.96,3214.01,3458.47,499.51,487.41,15.12,0000 0000 0000 0000 000000
2014-09-21 05:21:49,0.00,0.47,0.00,22.61,26.50,29.22,9.43,40.45,996.82,2041.96,3214.69,3214.00,3458.07,500.41,487.96,15.16,0000 0000 0000 0000 000000
2014-09-21 05:26:51,0.01,0.47,0.00,22.65,26.50,29.23,9.42,40.44,996.98,2041.98,3214.27,3213.99,3458.03,499.99,487.87,15.21,0000 0000 0000 0000 000000
2014-09-21 05:31:52,0.00,0.47,0.00,22.65,26.50,29.21,9.42,40.40,997.08,2041.98,3214.06,3213.96,3458.01,499.99,487.84,15.25,0000 0000 0000 0000 000000
2014-09-21 05:36:53,-0.00,0.47,0.00,22.67,26.50,29.18,9.40,40.52,997.08,2041.96,3214.01,3213.88,3458.00,499.80,487.33,15.29,0000 0000 0000 0000 000000
2014-09-21 05:41:54,0.01,0.47,0.00,22.67,26.50,29.15,9.40,40.27,997.09,2041.93,3214.02,3213.44,3457.99,500.32,487.98,15.33,0000 0000 0000 0000 000000
2014-09-21 05:46:55,0.00,0.47,0.00,22.66,26.51,29.11,9.37,40.24,997.25,2041.92,3213.97,3213.15,3457.95,499.96,487.72,15.37,0000 0000 0000 0000 000000
2014-09-21 05:51:57,0.01,0.47,0.00,22.66,26.52,29.11,9.39,40.31,997.51,2041.91,3213.77,3213.01,3457.78,499.91,487.70,15.42,0000 0000 0000 0000 000000
2014-09-21 05:56:57,-0.02,0.47,0.00,22.67,26.52,29.09,9.38,40.40,997.57,2041.60,3213.42,3212.99,3457.34,499.78,487.84,15.46,0000 0000 0000 0000 000000
2014-09-21 06:01:58,0.02,0.47,0.00,22.67,26.52,29.10,9.42,40.39,997.60,2041.65,3213.04,3212.99,3457.04,500.26,488.39,15.50,0000 0000 0000 0000 000000
2014-09-21 06:06:59,-0.03,0.48,0.00,22.69,26.52,29.07,9.36,40.28,997.64,2041.64,3213.23,3212.98,3457.07,499.91,487.85,15.54,0000 0000 0000 0000 000000
2014-09-21 06:12:01,-0.01,0.47,0.00,22.73,26.52,29.10,9.46,40.26,997.74,2041.44,3213.03,3212.93,3457.00,500.41,488.41,15.58,0000 0000 0000 0000 000000
2014-09-21 06:17:01,-0.00,0.47,0.00,22.73,26.54,29.09,9.46,40.26,997.80,2041.17,3213.02,3212.65,3457.00,500.32,488.11,15.62,0000 0000 0000 0000 000000
2014-09-21 06:22:03,0.00,0.47,0.00,22.73,26.55,29.04,9.43,40.12,998.02,2041.12,3212.97,3212.17,3456.99,499.95,488.01,15.67,0000 0000 0000 0000 000000
2014-09-21 06:27:04,0.00,0.47,0.00,22.70,26.55,29.04,9.39,40.13,998.06,2041.11,3212.84,3212.04,3456.93,500.00,488.06,15.71,0000 0000 0000 0000 000000
2014-09-21 06:32:05,0.00,0.47,0.00,22.76,26.55,29.08,9.44,40.21,998.06,2041.08,3212.57,3212.00,3456.66,500.01,488.03,15.75,0000 0000 0000 0000 000000
2014-09-21 06:37:06,0.01,0.47,0.00,22.79,26.56,29.08,9.48,40.23,998.06,2041.02,3212.38,3211.99,3456.31,500.29,488.21,15.79,0000 0000 0000 0000 000000
2014-09-21 06:42:07,0.00,0.47,0.00,22.75,26.57,29.05,9.43,40.30,998.06,2041.01,3212.10,3211.98,3456.08,499.95,487.76,15.83,0000 0000 0000 0000 000000
2014-09-21 06:47:08,0.01,0.47,0.00,22.73,26.57,29.05,9.37,40.32,998.07,2041.01,3212.03,3211.85,3456.02,499.96,488.04,15.88,0000 0000 0000 0000 000000
2014-09-21 06:52:09,0.02,0.48,0.00,22.71,26.57,29.09,9.43,40.33,998.11,2041.01,3212.00,3211.18,3456.00,500.00,488.18,15.92,0000 0000 0000 0000 000000
2014-09-21 06:57:11,0.00,0.48,0.00,22.71,26.57,29.15,9.47,40.27,998.33,2041.01,3211.96,3211.06,3456.00,500.44,488.72,15.96,0000 0000 0000 0000 000000
2014-09-21 07:02:12,0.02,0.48,0.00,22.70,26.58,29.11,9.41,40.43,998.48,2041.00,3211.50,3211.00,3455.83,500.21,488.55,16.00,0000 0000 0000 0000 000000
2014-09-21 07:07:13,0.01,0.48,0.00,22.70,26.59,29.12,9.36,40.27,998.55,2041.00,3211.13,3210.99,3455.46,499.74,488.10,16.04,0000 0000 0000 0000 000000
2014-09-21 07:12:14,0.01,0.48,0.00,22.66,26.60,29.13,9.44,40.33,998.55,2040.99,3211.04,3210.91,3455.14,500.11,488.60,16.08,0000 0000 0000 0000 000000
2014-09-21 07:17:15,0.02,0.48,0.00,22.67,26.60,29.09,9.47,40.44,998.70,2040.98,3211.00,3210.30,3455.00,499.83,488.30,16.13,0000 0000 0000 0000 000000
2014-09-21 07:22:17,0.00,0.48,0.00,22.68,26.61,29.07,9.43,40.40,998.97,2040.98,3210.99,3210.03,3455.00,499.92,488.54,16.17,0000 0000 0000 0000 000000
2014-09-21 07:27:17,0.01,0.48,0.00,22.65,26.62,29.09,9.43,40.38,999.04,2040.97,3210.70,3210.00,3454.97,500.10,488.82,16.21,0000 0000 0000 0000 000000
2014-09-21 07:32:18,0.01,0.48,0.00,22.65,26.62,29.09,9.39,40.29,999.05,2040.97,3210.12,3210.00,3454.59,499.96,488.59,16.25,0000 0000 0000 0000 000000
2014-09-21 07:37:19,0.01,0.48,0.00,22.62,26.63,29.07,9.43,40.38,999.05,2040.95,3210.00,3209.93,3454.09,500.19,488.92,16.29,0000 0000 0000 0000 000000
2014-09-21 07:42:20,0.01,0.48,0.00,22.60,26.65,29.07,9.43,40.48,999.24,2040.91,3209.99,3209.45,3454.02,500.04,488.93,16.34,0000 0000 0000 0000 000000
2014-09-21 07:47:21,0.00,0.48,0.00,22.60,26.65,29.07,9.38,40.59,999.41,2040.77,3209.61,3209.02,3453.99,499.49,488.42,16.38,0000 0000 0000 0000 000000
2014-09-21 07:52:22,-0.01,0.48,0.00,22.58,26.66,29.11,9.46,40.49,999.46,2040.55,3209.05,3209.00,3453.94,500.10,489.19,16.42,0000 0000 0000 0000 000000
2014-09-21 07:57:23,0.03,0.48,0.00,22.60,26.67,29.12,9.43,40.51,999.50,2040.59,3209.00,3209.00,3453.60,499.66,488.76,16.46,0000 0000 0000 0000 000000
2014-09-21 08:02:24,-0.02,0.48,0.00,22.61,26.67,29.08,9.39,40.32,999.52,2040.47,3208.99,3208.99,3453.23,500.07,489.05,16.50,0000 0000 0000 0000 000000
2014-09-21 08:07:26,-0.02,0.48,0.00,22.65,26.68,29.09,9.40,40.23,999.53,2040.22,3208.97,3208.81,3453.03,499.53,488.55,16.55,0000 0000 0000 0000 000000
2014-09-21 08:12:27,0.02,0.48,0.00,22.67,26.70,29.10,9.40,40.23,999.53,2040.21,3208.79,3208.37,3453.00,500.01,488.95,16.59,0000 0000 0000 0000 000000
2014-09-21 08:17:28,0.00,0.48,0.00,22.68,26.70,29.10,9.43,40.23,999.56,2040.06,3208.13,3208.03,3452.99,500.03,488.82,16.63,0000 0000 0000 0000 000000
2014-09-21 08:22:29,0.00,0.48,0.00,22.71,26.72,29.12,9.48,40.19,999.86,2040.02,3208.00,3208.00,3452.68,500.10,489.11,16.67,0000 0000 0000 0000 000000
2014-09-21 08:27:30,0.01,0.48,0.00,22.72,26.72,29.13,9.41,40.10,1000.00,2040.01,3207.98,3207.97,3452.09,500.07,489.22,16.71,0000 0000 0000 0000 000000
2014-09-21 08:32:31,0.00,0.48,0.00,22.70,26.74,29.16,9.45,40.25,1000.01,2040.03,3207.86,3207.92,3452.02,499.82,488.88,16.75,0000 0000 0000 0000 000000
2014-09-21 08:37:32,0.03,0.48,0.00,22.69,26.75,29.18,9.48,40.33,1000.01,2040.00,3207.32,3207.41,3452.01,500.37,489.54,16.80,0000 0000 0000 0000 000000
2014-09-21 08:42:33,0.01,0.48,0.00,22.69,26.76,29.20,9.53,40.34,1000.02,2040.01,3207.01,3207.04,3451.98,500.66,489.68,16.84,0000 0000 0000 0000 000000
2014-09-21 08:47:34,0.00,0.48,0.00,22.70,26.77,29.21,9.44,40.27,1000.03,2040.00,3206.99,3207.00,3451.77,499.82,488.85,16.88,0000 0000 0000 0000 000000
2014-09-21 08:52:35,0.01,0.48,0.00,22.68,26.77,29.23,9.42,40.20,1000.14,2040.00,3206.75,3206.99,3451.16,499.67,488.85,16.92,0000 0000 0000 0000 000000
2014-09-21 08:57:36,0.01,0.49,0.00,22.68,26.78,29.23,9.43,40.36,1000.35,2040.00,3206.14,3206.90,3451.02,499.64,489.04,16.96,0000 0000 0000 0000 000000
2014-09-21 09:02:37,0.02,0.49,0.00,22.67,26.80,29.25,9.43,40.24,1000.48,2040.00,3206.00,3206.40,3450.99,499.96,489.34,17.01,0000 0000 0000 0000 000000
2014-09-21 09:07:38,0.01,0.49,0.00,22.62,26.80,29.25,9.43,40.20,1000.50,2040.00,3205.95,3206.01,3450.85,499.87,489.65,17.05,0000 0000 0000 0000 000000
2014-09-21 09:12:39,0.02,0.49,0.00,22.60,26.80,29.25,9.40,40.24,1000.55,2040.00,3205.63,3206.00,3450.49,500.04,489.45,17.09,0000 0000 0000 0000 000000
2014-09-21 09:17:40,0.01,0.49,0.00,22.62,26.80,29.25,9.45,40.42,1000.68,2039.99,3205.05,3205.98,3450.03,499.85,489.42,17.13,0000 0000 0000 0000 000000
2014-09-21 09:22:41,0.00,0.49,0.00,22.60,26.82,29.25,9.43,40.23,1000.94,2039.99,3205.00,3205.96,3450.00,499.89,489.71,17.17,0000 0000 0000 0000 000000
2014-09-21 09:27:42,0.02,0.49,0.00,22.57,26.82,29.26,9.41,40.23,1000.98,2039.99,3204.96,3205.36,3449.99,499.92,489.72,17.21,0000 0000 0000 0000 000000
2014-09-21 09:32:43,0.01,0.49,0.00,22.56,26.82,29.26,9.40,40.37,1000.99,2039.98,3204.68,3205.06,3449.91,499.52,489.50,17.26,0000 0000 0000 0000 000000
2014-09-21 09:37:44,0.02,0.49,0.00,22.59,26.82,29.28,9.53,40.33,1000.99,2039.98,3204.11,3205.01,3449.49,500.63,490.35,17.30,0000 0000 0000 0000 000000
2014-09-21 09:42:45,0.00,0.49,0.00,22.59,26.83,29.28,9.50,40.27,1001.00,2039.98,3204.00,3204.99,3449.02,500.27,489.93,17.34,0000 0000 0000 0000 000000
2014-09-21 09:47:47,0.00,0.49,0.00,22.56,26.84,29.28,9.41,40.42,1001.04,2039.97,3203.97,3204.98,3449.00,499.60,489.43,17.38,0000 0000 0000 0000 000000
2014-09-21 09:52:47,0.03,0.49,0.00,22.57,26.85,29.28,9.39,40.38,1001.16,2039.97,3203.43,3204.68,3448.97,499.46,489.34,17.42,0000 0000 0000 0000 000000
2014-09-21 09:57:48,0.03,0.49,0.00,22.58,26.85,29.31,9.51,40.32,1001.43,2039.97,3203.02,3204.14,3448.65,500.47,490.13,17.47,0000 0000 0000 0000 000000
2014-09-21 10:02:49,0.00,0.49,0.00,22.57,26.85,29.30,9.52,40.31,1001.47,2039.93,3202.99,3204.01,3448.15,500.03,489.98,17.51,0000 0000 0000 0000 000000
2014-09-21 10:07:50,-0.00,0.49,0.00,22.59,26.85,29.30,9.45,40.33,1001.47,2039.90,3202.88,3204.00,3448.01,499.91,489.91,17.55,0000 0000 0000 0000 000000
2014-09-21 10:12:51,0.01,0.49,0.00,22.58,26.85,29.33,9.50,40.33,1001.48,2039.85,3202.13,3203.95,3447.98,500.29,490.29,17.59,0000 0000 0000 0000 000000
2014-09-21 10:17:52,0.01,0.49,0.00,22.57,26.85,29.31,9.45,40.19,1001.48,2039.83,3202.00,3203.56,3447.95,499.99,490.08,17.63,0000 0000 0000 0000 000000
2014-09-21 10:22:53,0.02,0.50,0.00,22.58,26.85,29.33,9.45,40.20,1001.48,2039.89,3201.99,3203.21,3447.82,499.86,489.95,17.67,0000 0000 0000 0000 000000
2014-09-21 10:27:54,0.01,0.50,0.00,22.56,26.85,29.30,9.44,40.39,1001.51,2039.84,3201.94,3203.02,3447.37,499.86,489.89,17.72,0000 0000 0000 0000 000000
2014-09-21 10:32:56,0.01,0.50,0.00,22.53,26.85,29.30,9.40,40.33,1001.53,2039.87,3201.65,3203.00,3447.08,499.56,489.81,17.76,0000 0000 0000 0000 000000
2014-09-21 10:37:57,0.01,0.50,0.00,22.54,26.85,29.30,9.47,40.23,1001.54,2039.87,3201.23,3203.00,3447.02,499.95,490.11,17.80,0000 0000 0000 0000 000000
2014-09-21 10:42:58,-0.01,0.50,0.00,22.53,26.85,29.30,9.48,40.34,1001.52,2039.79,3201.02,3202.98,3447.00,500.10,490.26,17.84,0000 0000 0000 0000 000000
2014-09-21 10:47:58,-0.00,0.50,0.00,22.50,26.85,29.32,9.46,40.37,1001.54,2039.72,3201.00,3202.95,3446.98,499.90,489.98,17.88,0000 0000 0000 0000 000000
2014-09-21 10:57:48,0.03,0.50,0.00,22.54,26.85,29.34,9.35,40.43,1001.53,2039.77,3200.90,3202.22,3446.84,499.08,489.09,17.97,0000 0000 0000 0000 000000
2014-09-21 11:02:49,0.02,0.50,0.00,22.54,26.84,29.30,9.48,40.38,1001.54,2039.70,3200.46,3202.02,3446.34,500.41,490.49,18.01,0000 0000 0000 0000 000000
2014-09-21 11:07:50,0.01,0.50,0.00,22.52,26.84,29.27,9.44,40.40,1001.57,2039.72,3200.03,3202.00,3446.03,500.07,490.14,18.05,0000 0000 0000 0000 000000
2014-09-21 11:12:51,-0.00,0.50,0.00,22.52,26.83,29.29,9.48,40.44,1001.70,2039.66,3199.99,3202.00,3446.00,500.28,490.56,18.09,0000 0000 0000 0000 000000
2014-09-21 11:17:53,0.01,0.50,0.00,22.53,26.82,29.34,9.48,40.49,1001.89,2039.72,3199.77,3201.99,3445.99,499.87,490.16,18.13,0000 0000 0000 0000 000000
2014-09-21 11:22:54,0.03,0.50,0.00,22.52,26.82,29.33,9.45,40.34,1001.96,2039.82,3199.11,3201.90,3445.91,499.65,490.10,18.18,0000 0000 0000 0000 000000
2014-09-21 11:27:55,0.02,0.50,0.00,22.51,26.82,29.30,9.51,40.39,1001.97,2039.81,3199.00,3201.52,3445.46,499.93,490.27,18.22,0000 0000 0000 0000 000000
2014-09-21 11:32:56,0.02,0.50,0.00,22.49,26.82,29.31,9.44,40.40,1001.97,2039.87,3198.99,3201.09,3445.07,499.89,490.35,18.26,0000 0000 0000 0000 000000
2014-09-21 11:37:58,0.00,0.50,0.00,22.51,26.82,29.27,9.47,40.30,1001.98,2039.75,3198.46,3201.01,3445.00,499.90,490.31,18.30,0000 0000 0000 0000 000000
2014-09-21 11:42:59,0.02,0.50,0.00,22.52,26.82,29.30,9.45,40.33,1002.01,2039.86,3198.02,3201.00,3444.99,500.20,490.63,18.34,0000 0000 0000 0000 000000
2014-09-21 11:48:00,-0.00,0.50,0.00,22.52,26.82,29.29,9.51,40.19,1002.16,2039.90,3198.00,3200.99,3444.94,500.55,490.94,18.38,0000 0000 0000 0000 000000
2014-09-21 11:53:01,0.01,0.50,0.00,22.51,26.82,29.28,9.49,40.28,1002.30,2039.91,3197.98,3200.96,3444.64,499.72,490.23,18.43,0000 0000 0000 0000 000000
2014-09-21 11:58:03,0.03,0.51,0.00,22.50,26.82,29.34,9.45,40.13,1002.36,2039.87,3197.63,3200.46,3444.14,500.09,490.62,18.47,0000 0000 0000 0000 000000
2014-09-21 12:03:04,0.01,0.51,0.00,22.52,26.82,29.30,9.41,40.25,1002.39,2039.88,3197.11,3200.05,3444.01,500.27,490.71,18.51,0000 0000 0000 0000 000000
2014-09-21 12:08:06,0.00,0.51,0.00,22.49,26.82,29.29,9.48,40.27,1002.42,2039.95,3197.01,3200.02,3443.99,500.08,490.63,18.55,0000 0000 0000 0000 000000
2014-09-21 12:13:07,0.00,0.51,0.00,22.48,26.82,29.31,9.46,40.08,1002.43,2039.97,3196.98,3200.00,3443.99,499.98,490.59,18.59,0000 0000 0000 0000 000000
2014-09-21 12:18:08,0.00,0.51,0.00,22.49,26.82,29.26,9.45,40.21,1002.46,2039.97,3196.86,3200.00,3443.97,499.86,490.49,18.64,0000 0000 0000 0000 000000
2014-09-21 12:23:09,0.03,0.51,0.00,22.48,26.82,29.25,9.51,40.27,1002.46,2039.96,3196.15,3199.91,3443.40,500.35,491.09,18.68,0000 0000 0000 0000 000000
2014-09-21 12:28:10,0.02,0.51,0.00,22.47,26.81,29.27,9.49,40.17,1002.46,2039.90,3196.00,3199.27,3443.02,499.92,490.65,18.72,0000 0000 0000 0000 000000
2014-09-21 12:33:11,0.00,0.51,0.00,22.50,26.81,29.27,9.52,40.15,1002.46,2039.89,3195.95,3199.05,3443.00,500.01,490.79,18.76,0000 0000 0000 0000 000000
2014-09-21 12:38:13,0.01,0.51,0.00,22.50,26.81,29.27,9.48,40.16,1002.46,2039.88,3195.56,3199.00,3442.99,500.20,490.85,18.80,0000 0000 0000 0000 000000
2014-09-21 12:43:14,0.01,0.51,0.00,22.53,26.81,29.26,9.50,40.17,1002.46,2039.86,3195.02,3199.00,3442.75,499.76,490.39,18.85,0000 0000 0000 0000 000000
2014-09-21 12:48:16,-0.01,0.51,0.00,22.51,26.80,29.31,9.51,40.17,1002.46,2039.75,3194.99,3199.00,3442.20,499.96,490.76,18.89,0000 0000 0000 0000 000000
2014-09-21 12:53:17,0.02,0.51,0.00,22.50,26.80,29.28,9.49,40.23,1002.46,2039.80,3194.95,3198.96,3442.01,500.00,490.75,18.93,0000 0000 0000 0000 000000
2014-09-21 12:58:18,0.02,0.51,0.00,22.51,26.80,29.30,9.55,40.38,1002.46,2039.91,3194.35,3198.75,3442.00,500.18,491.05,18.97,0000 0000 0000 0000 000000
2014-09-21 13:03:19,0.00,0.51,0.00,22.49,26.80,29.30,9.48,40.33,1002.46,2039.81,3194.01,3198.10,3441.98,500.01,490.64,19.01,0000 0000 0000 0000 000000
2014-09-21 13:08:20,0.02,0.51,0.00,22.49,26.80,29.27,9.53,40.31,1002.46,2039.88,3193.97,3198.02,3441.85,499.91,490.51,19.05,0000 0000 0000 0000 000000
2014-09-21 13:13:22,0.01,0.51,0.00,22.48,26.80,29.33,9.49,40.28,1002.50,2039.94,3193.82,3198.00,3441.53,500.09,490.74,19.10,0000 0000 0000 0000 000000
2014-09-21 13:18:23,0.02,0.52,0.00,22.46,26.80,29.30,9.48,40.08,1002.78,2039.95,3193.18,3197.99,3441.07,499.78,490.67,19.14,0000 0000 0000 0000 000000